Overview Statistics Trail Chart Weather Telemetry Raw packets
 

This is the latest recevied weather packets stored in our database for station/object OK1VOF-13. If no packets are shown the sender has not sent any weather packets the latest 10 day(s).

<< 54 55 56 57 58 59 60 >>
Time Temp. Humidity Pressure Rain* Wind** Luminosity Snow
1787866288 21.11° C 49% 1020.5 hPa 0 mm - - -
1787865996 21.11° C 49% 1020.5 hPa 0 mm - - -
1787865393 21.11° C 49% 1020.4 hPa 0 mm - - -
1787864801 21.67° C 49% 1020.4 hPa 0 mm - - -
1787864203 21.67° C 48% 1020.4 hPa 0 mm - - -
1787863002 21.67° C 48% 1020.3 hPa 0 mm - - -
1787862404 22.22° C 48% 1020.2 hPa 0 mm - - -
1787862105 22.22° C 47% 1020.3 hPa 0 mm - - -
1787861807 22.22° C 47% 1020.1 hPa 0 mm - - -
1787860020 23.33° C 46% 1020.3 hPa 0 mm - - -
1787859423 23.33° C 45% 1020.3 hPa 0 mm - - -
1787859117 23.33° C 45% 1020.3 hPa 0 mm - - -
1787858818 23.89° C 44% 1020.3 hPa 0 mm - - -
1787857929 24.44° C 43% 1020.3 hPa 0 mm - - -
1787857623 24.44° C 43% 1020.3 hPa 0 mm - - -
1787857032 25° C 42% 1020.3 hPa 0 mm - - -
1787855831 25.56° C 41% 1020.1 hPa 0 mm - - -
1787854327 27.22° C 39% 1020.2 hPa 10.67 mm - - -
1787854025 27.22° C 38% 1020.2 hPa 10.67 mm - - -
1787853421 27.78° C 37% 1020.2 hPa 10.67 mm - - -
1787853119 28.33° C 37% 1020.3 hPa 10.67 mm - - -
1787851877 30° C 35% 1020.4 hPa 0 mm - - -
1787851578 30° C 34% 1020.3 hPa 0 mm - - -
1787850384 31.67° C 33% 1020.2 hPa 0 mm - - -
1787849792 32.22° C 32% 1020.1 hPa 0 mm - - -

* Rain latest hour (hover to see other rain measurements)
** Current wind speed in m/s (hover to see current wind gust speed)